Location: Bergnershof
(48.9468°N, 10.9431°E)
Time: 03:21:14
(UTC+00:00)

Gbstr 26 Del rocket - Pass Details

Date: 03 March 2021
Orbit: 492 x 1264 km, 51.8° (Epoch: 16 April)

Event Time Altitude Azimuth Distance (km) Brightness Sun altitude
Rises 18:07:57 0° 266° (W) 2,763 8.5 -11.5°
Reaches altitude 10° 18:10:01 10° 269° (W) 1,943 7.2 -11.8°
Maximum altitude 18:14:25 66° 352° (N) 750 3.5 -12.5°
Enters shadow 18:18:36 17° 73° (ENE) 1,912 5.0 -13.2°
